This demonstration page uses our WeatherBlox Daily Observations layout. Learn more.

Left ArrowRight Arrow

Hourly Observations for October 9, 2015

Temp ( °F °C ) Dew Point ( °F °C ) Humidity (%) Winds ( mph kmh ) Pressure ( in mb ) Visibility ( mi km ) Precip ( " mm )
12:15 am 00:15 Clear 63 17 61 16 94 94 S 3 6 30.09 1019 10 16 N/A
12:35 am 00:35 Clear 61 16 61 16 100 100 N N/A 30.06 1018 10 16 N/A
12:55 am 00:55 Clear 63 17 61 16 94 94 SSE 3 6 30.06 1018 10 16 N/A
1:15 am 01:15 Clear 63 17 61 16 94 94 S 5 7 30.06 1018 10 16 N/A
1:35 am 01:35 Clear 63 17 61 16 94 94 S 5 7 30.06 1018 10 16 N/A
1:55 am 01:55 Clear 63 17 61 16 94 94 SSE 6 9 30.06 1018 10 16 N/A
2:15 am 02:15 Clear 63 17 61 16 94 94 SSE 6 9 30.03 1017 10 16 N/A
2:35 am 02:35 Clear 63 17 61 16 94 94 S 3 6 30.03 1017 10 16 N/A
2:55 am 02:55 Clear 61 16 61 16 100 100 S 7 11 30.03 1017 10 16 N/A
3:15 am 03:15 Clear 61 16 61 16 100 100 S 8 13 30.03 1017 10 16 N/A
3:35 am 03:35 Clear 61 16 61 16 100 100 S 7 11 30.03 1017 7 11 N/A
3:55 am 03:55 Partly Cloudy 61 16 61 16 100 100 SSW 8 13 30.03 1017 7 11 N/A
4:15 am 04:15 Mostly Cloudy 61 16 61 16 100 100 S 10 17 30.00 1016 7 11 N/A
4:35 am 04:35 Mostly Cloudy with Mist and Fog 61 16 61 16 100 100 S 9 15 30.00 1016 5 8 N/A
4:55 am 04:55 Cloudy with Mist and Fog 61 16 61 16 100 100 WSW 3 6 30.00 1016 5 8 N/A
5:15 am 05:15 Cloudy with Mist and Fog 61 16 61 16 100 100 S 7 11 30.00 1016 5 8 N/A
5:35 am 05:35 Cloudy with Mist and Fog 61 16 61 16 100 100 SSW 7 11 30.00 1016 5 8 N/A
5:55 am 05:55 Cloudy with Mist and Fog 61 16 61 16 100 100 S 6 9 30.00 1016 5 8 N/A
6:15 am 06:15 Mostly Cloudy with Mist and Fog 61 16 61 16 100 100 S 6 9 30.00 1016 4 6 N/A
6:35 am 06:35 Partly Cloudy with Mist and Fog 61 16 61 16 100 100 S 3 6 30.00 1016 4 6 N/A
6:55 am 06:55 Partly Cloudy with Mist and Fog 61 16 61 16 100 100 SSE 3 6 30.00 1016 4 6 N/A
7:15 am 07:15 Mostly Cloudy with Mist and Fog 61 16 61 16 100 100 SSE 5 7 30.00 1016 3 5 N/A
7:35 am 07:35 Cloudy with Fog 61 16 61 16 100 100 S 7 11 30.00 1016 0 0 N/A
7:55 am 07:55 Cloudy with Fog 61 16 61 16 100 100 S 6 9 29.97 1015 5 8 N/A
8:15 am 08:15 Cloudy with Fog 61 16 61 16 100 100 SSW 9 15 30.00 1016 5 8 N/A
8:35 am 08:35 Cloudy with Fog 61 16 61 16 100 100 SSW 10 17 30.00 1016 0 0 N/A
8:55 am 08:55 Cloudy with Fog 63 17 63 17 100 100 S 5 7 30.00 1016 0 0 N/A
9:15 am 09:15 Cloudy with Fog 63 17 63 17 100 100 N N/A 30.00 1016 1 1 N/A
9:35 am 09:35 Cloudy with Mist and Fog 63 17 63 17 100 100 N N/A 29.97 1015 2 3 N/A
9:55 am 09:55 Cloudy with Mist and Fog 64 18 64 18 100 100 N N/A 30.00 1016 4 6 N/A
10:15 am 10:15 Cloudy 66 19 66 19 100 100 S 3 6 29.97 1015 7 11 N/A
10:35 am 10:35 Mostly Cloudy 70 21 68 20 94 94 S 5 7 29.97 1015 10 16 N/A
10:55 am 10:55 Cloudy 72 22 66 19 83 83 SSW 5 7 29.97 1015 10 16 N/A
11:15 am 11:15 Cloudy 72 22 68 20 88 88 SSW 5 7 29.97 1015 10 16 N/A
11:35 am 11:35 Cloudy 73 23 68 20 83 83 SW 5 7 29.97 1015 10 16 N/A
11:55 am 11:55 Cloudy with Light Rain 72 22 68 20 88 88 N N/A 29.94 1014 10 16 N/A
12:15 pm 12:15 Cloudy with Drizzle 72 22 70 21 94 94 SW 3 6 29.94 1014 10 16 N/A
12:35 pm 12:35 Cloudy with Light Rain 72 22 70 21 94 94 SSW 5 7 29.94 1014 10 16 N/A
12:55 pm 12:55 Mostly Cloudy 72 22 68 20 88 88 S 7 11 29.94 1014 10 16 N/A
1:15 pm 13:15 Partly Cloudy 73 23 68 20 83 83 S 8 13 29.91 1013 10 16 N/A
1:35 pm 13:35 Sunny 75 24 68 20 78 78 SSW 9 15 29.91 1013 10 16 N/A
1:55 pm 13:55 Partly Cloudy 77 25 70 21 79 79 SW 7 11 29.91 1013 10 16 N/A
2:15 pm 14:15 Mostly Cloudy 77 25 68 20 74 74 SW 8 13 29.88 1012 10 16 N/A
2:35 pm 14:35 Partly Cloudy 77 25 70 21 79 79 SSW 7 11 29.88 1012 10 16 N/A
2:55 pm 14:55 Partly Cloudy 79 26 70 21 74 74 SSW 8 13 29.88 1012 10 16 N/A
3:15 pm 15:15 Partly Cloudy 79 26 68 20 70 70 SW 9 15 29.88 1012 10 16 N/A
3:35 pm 15:35 Partly Cloudy 81 27 68 20 66 66 SSW 9 15 29.85 1011 10 16 N/A
3:55 pm 15:55 Sunny 81 27 68 20 66 66 WSW 9 15 29.85 1011 10 16 N/A
4:15 pm 16:15 Sunny 81 27 68 20 66 66 WSW 8 13 29.83 1010 10 16 N/A
4:35 pm 16:35 Partly Cloudy 82 28 68 20 62 62 SW 9 15 29.85 1011 10 16 N/A
4:55 pm 16:55 Mostly Cloudy 81 27 68 20 66 66 WSW 6 9 29.85 1011 10 16 N/A
5:15 pm 17:15 Cloudy 79 26 68 20 70 70 WSW 8 13 29.85 1011 10 16 N/A
5:35 pm 17:35 Cloudy 79 26 68 20 70 70 W 7 11 29.85 1011 10 16 N/A
5:55 pm 17:55 Cloudy with Light Rain 70 21 66 19 88 88 NW 16 26 29.88 1012 7 11 N/A
6:15 pm 18:15 Cloudy with Light Rain 68 20 66 19 94 94 NW 13 20 29.88 1012 10 16 N/A
6:35 pm 18:35 Partly Cloudy with Nearby Thunderstorms 68 20 64 18 88 88 W 13 20 29.88 1012 10 16 N/A
6:55 pm 18:55 Partly Cloudy 68 20 64 18 88 88 WNW 14 22 29.88 1012 10 16 N/A
7:15 pm 19:15 Partly Cloudy 68 20 63 17 83 83 WNW 10 17 29.88 1012 10 16 N/A
7:35 pm 19:35 Partly Cloudy 70 21 63 17 78 78 NNW 6 9 29.91 1013 10 16 N/A
7:55 pm 19:55 Mostly Cloudy 68 20 63 17 83 83 NW 6 9 29.94 1014 10 16 N/A
8:15 pm 20:15 Partly Cloudy 68 20 63 17 83 83 WNW 5 7 29.94 1014 10 16 N/A
8:35 pm 20:35 Clear 68 20 64 18 88 88 NNW 5 7 29.94 1014 10 16 N/A
8:55 pm 20:55 Mostly Cloudy 68 20 64 18 88 88 NW 6 9 29.94 1014 10 16 N/A
9:15 pm 21:15 Cloudy 68 20 64 18 88 88 NW 7 11 29.97 1015 10 16 N/A
9:35 pm 21:35 Cloudy 68 20 63 17 83 83 NNW 9 15 29.97 1015 10 16 N/A
9:55 pm 21:55 Cloudy 68 20 63 17 83 83 NW 9 15 29.97 1015 10 16 N/A
10:15 pm 22:15 Cloudy 68 20 63 17 83 83 NW 8 13 29.97 1015 10 16 N/A
10:35 pm 22:35 Partly Cloudy 68 20 63 17 83 83 NNW 7 11 29.97 1015 10 16 N/A
10:55 pm 22:55 Partly Cloudy 66 19 63 17 88 88 NNW 6 9 29.97 1015 10 16 N/A
11:15 pm 23:15 Clear 66 19 63 17 88 88 NNW 6 9 30.00 1016 10 16 N/A
11:35 pm 23:35 Clear 66 19 63 17 88 88 N 7 11 30.00 1016 10 16 N/A
11:55 pm 23:55 Clear 64 18 59 15 83 83 NNW 6 9 30.00 1016 10 16 N/A

Powered by AerisWeather